User: anonymous   Login
Location: Clinton NY
(43.0598°N, 75.3602°W)
Time: 01:49:42
(UTC-05:00)
Language:

Iridium 11 - Orbit

View from above orbital plane
View from above orbital plane
View from above satellite
View from above satellite

Ground track
Ground track

The orbit data is extracted from the following two-line orbital elements,

1 25578U 98074B   16043.58825220  .00000240  00000-0  78634-4 0  9999
2 25578  86.3948 100.7285 0002360  96.3027  14.4569 14.34216901907082
Epoch (UTC): 12 February 2016 14:07:04
Eccentricity: 0.0002360
inclination: 86.3948°
perigee height: 776 km
apogee height: 779 km
right ascension of ascending node: 100.7285°
argument of perigee: 96.3027°
revolutions per day: 14.34216901
mean anomaly at epoch: 14.4569°
orbit number at epoch: 90708

The dashed part of the orbit path shows where the satellite is in the earth's shadow,  

DLR